GW3634 Weather Reports


time (UTC)temp
C
wind
direction
speed
KPH
gust
KPH
rain 1hr
cm
rain 24hr
cm
rain mn
cm
humidity
%
barometer
mb
20260506025414 14 331 3.2 12.9 0.00 0.00 0.00 80 1041.1
20260506024911 14 347 4.8 16.1 0.00 0.00 0.00 80 1040.6
20260506024408 14 356 4.8 16.1 0.00 0.00 0.00 80 1040.7
20260506023904 14 318 4.8 12.9 0.00 0.00 0.00 81 1040.9
20260506023401 14 20 9.7 12.9 0.00 0.00 0.00 81 1040.6
20260506022857 14 341 4.8 11.3 0.00 0.00 0.00 81 1040.3
20260506022355 14 37 14.5 14.5 0.00 0.00 0.00 82 1039.6
20260506021853 14 15 17.7 17.7 0.00 0.00 0.00 81 1039.6
20260506021350 14 26 11.3 17.7 0.00 0.00 0.00 82 1039.6
20260506020846 14 15 11.3 24.1 0.00 0.00 0.00 82 1039.4
20260506020345 15 33 9.7 16.1 0.00 0.00 0.00 82 1039.3
20260506015842 15 29 11.3 22.5 0.00 0.00 0.00 82 1039.3
20260506015339 15 7 11.3 17.7 0.00 0.00 0.00 82 1039.2
20260506014836 15 25 6.4 24.1 0.00 0.00 0.00 82 1039.0
20260506014333 15 14 6.4 14.5 0.00 0.00 0.00 82 1039.2
20260506013829 15 16 19.3 22.5 0.00 0.00 0.00 81 1039.0
20260506013327 15 320 3.2 16.1 0.00 0.00 0.00 82 1039.1
20260506012823 15 354 6.4 16.1 0.00 0.00 0.00 81 1038.7
20260506012320 15 20 6.4 16.1 0.00 0.00 0.00 81 1038.9
20260506011817 15 335 11.3 14.5 0.00 0.00 0.00 81 1038.5
20260506011314 15 344 8.0 16.1 0.00 0.00 0.00 81 1038.2
20260506010811 15 27 17.7 19.3 0.00 0.00 0.00 80 1038.2
20260506010309 15 0 4.8 16.1 0.00 0.00 0.00 80 1038.4
20260506005806 16 352 6.4 16.1 0.00 0.00 0.00 80 1038.5
20260506005305 16 20 12.9 19.3 0.00 0.00 0.00 79 1038.4
20260506004759 16 4 4.8 14.5 0.00 0.00 0.00 79 1038.3
20260506004257 16 13 8.0 19.3 0.00 0.00 0.00 78 1038.1
20260506003752 16 343 11.3 22.5 0.00 0.00 0.00 78 1037.8
20260506003249 17 9 4.8 17.7 0.00 0.00 0.00 77 1037.9
20260506002745 17 2 9.7 14.5 0.00 0.00 0.00 77 1037.8
20260506002241 17 21 9.7 14.5 0.00 0.00 0.00 76 1037.8
20260506001737 18 13 14.5 17.7 0.00 0.00 0.00 76 1037.8
20260506001235 18 316 9.7 17.7 0.00 0.00 0.00 76 1037.7
20260506000732 18 7 4.8 12.9 0.00 0.00 0.00 75 1037.5
20260506000229 18 3 12.9 19.3 0.00 0.00 0.00 74 1037.6
20260505235726 19 353 4.8 14.5 0.00 0.00 0.00 75 1037.8
20260505235224 19 335 4.8 14.5 0.00 0.00 0.00 75 1037.8
20260505234720 19 354 11.3 19.3 0.00 0.00 0.00 75 1037.8
20260505234218 20 354 6.4 12.9 0.00 0.00 0.00 75 1037.6
20260505233714 20 312 12.9 17.7 0.00 0.00 0.00 74 1037.6
20260505233212 20 306 8.0 17.7 0.00 0.00 0.00 74 1037.5
20260505232709 20 324 11.3 22.5 0.00 0.00 0.00 74 1037.4
20260505232207 20 311 14.5 25.7 0.00 0.00 0.00 73 1037.4
20260505231703 20 307 12.9 25.7 0.00 0.00 0.00 73 1037.5
20260505231203 20 319 16.1 27.4 0.00 0.00 0.00 72 1037.3
20260505230700 21 318 11.3 22.5 0.00 0.00 0.00 72 1037.1
20260505230156 21 319 12.9 20.9 0.00 0.00 0.00 72 1037.5
20260505225653 22 326 16.1 19.3 0.00 0.00 0.00 72 1037.4
20260505225149 22 296 12.9 19.3 0.00 0.00 0.00 71 1036.9
20260505224645 22 323 8.0 16.1 0.00 0.00 0.00 71 1036.9
20260505224143 22 312 9.7 24.1 0.00 0.00 0.00 70 1037.1
20260505223635 22 311 14.5 20.9 0.00 0.00 0.00 69 1036.8
20260505223130 22 284 4.8 14.5 0.00 0.00 0.00 70 1036.8
20260505222627 22 305 14.5 16.1 0.00 0.00 0.00 69 1036.5
20260505222123 23 323 9.7 24.1 0.00 0.00 0.00 68 1036.4
20260505221620 23 311 11.3 22.5 0.00 0.00 0.00 68 1036.3
20260505221117 23 308 8.0 16.1 0.00 0.00 0.00 69 1036.1
20260505220614 23 323 3.2 16.1 0.00 0.00 0.00 68 1036.2
20260505220112 23 319 12.9 16.1 0.00 0.00 0.00 66 1036.2
20260505215609 23 324 12.9 19.3 0.00 0.00 0.00 65 1036.1
20260505215107 23 335 12.9 20.9 0.00 0.00 0.00 67 1036.2
20260505214605 24 315 9.7 20.9 0.00 0.00 0.00 64 1036.1
20260505214102 25 320 9.7 19.3 0.00 0.00 0.00 65 1036.1
20260505213559 24 315 9.7 20.9 0.00 0.00 0.00 66 1035.9
20260505213055 24 310 9.7 19.3 0.00 0.00 0.00 64 1035.9
20260505212552 25 324 9.7 16.1 0.00 0.00 0.00 64 1035.8
20260505212049 25 301 11.3 17.7 0.00 0.00 0.00 63 1035.9
20260505211541 25 294 9.7 20.9 0.00 0.00 0.00 62 1036.1
20260505211037 25 312 8.0 19.3 0.00 0.00 0.00 61 1036.1
20260505210534 25 311 8.0 24.1 0.00 0.00 0.00 58 1035.9
20260505210032 26 314 14.5 19.3 0.00 0.00 0.00 56 1036.1
20260505205530 26 303 9.7 19.3 0.00 0.00 0.00 54 1036.1
20260505205026 26 288 12.9 17.7 0.00 0.00 0.00 52 1035.9
20260505204524 27 296 20.9 24.1 0.00 0.00 0.00 49 1036.0
20260505204021 27 302 11.3 16.1 0.00 0.00 0.00 49 1035.8
20260505203517 27 310 8.0 22.5 0.00 0.00 0.00 50 1035.8
20260505203015 27 306 8.0 16.1 0.00 0.00 0.00 49 1036.1
20260505202511 27 291 9.7 25.7 0.00 0.00 0.00 49 1035.9
20260505202006 27 279 17.7 22.5 0.00 0.00 0.00 47 1035.6
20260505201504 27 291 9.7 17.7 0.00 0.00 0.00 48 1035.8
20260505201001 27 285 12.9 22.5 0.00 0.00 0.00 45 1035.7
20260505200459 27 251 14.5 16.1 0.00 0.00 0.00 46 1035.7
20260505195954 27 286 9.7 22.5 0.00 0.00 0.00 45 1035.7
20260505195452 27 280 17.7 25.7 0.00 0.00 0.00 45 1035.8
20260505194949 28 279 11.3 29.0 0.00 0.00 0.00 45 1035.6
20260505194447 29 299 17.7 20.9 0.00 0.00 0.00 50 1035.5
20260505193947 29 276 8.0 20.9 0.00 0.00 0.00 57 1035.7
20260505193444 28 283 8.0 16.1 0.00 0.00 0.00 59 1035.3
20260505192942 28 263 12.9 16.1 0.00 0.00 0.00 59 1035.3
20260505192440 28 259 8.0 14.5 0.00 0.00 0.00 60 1035.5
20260505191937 27 276 11.3 14.5 0.00 0.00 0.00 59 1035.2
20260505191436 27 288 9.7 17.7 0.00 0.00 0.00 60 1035.7
20260505190932 27 273 9.7 14.5 0.00 0.00 0.00 59 1035.4
20260505190427 27 233 11.3 24.1 0.00 0.00 0.00 59 1035.4
20260505185923 27 273 17.7 20.9 0.00 0.00 0.00 58 1035.2
20260505185421 28 271 9.7 16.1 0.00 0.00 0.00 58 1035.1
20260505184917 28 281 11.3 19.3 0.00 0.00 0.00 58 1035.3
20260505184414 28 277 22.5 24.1 0.00 0.00 0.00 57 1035.5
20260505183910 28 255 4.8 19.3 0.00 0.00 0.00 58 1035.3
20260505183407 28 280 4.8 20.9 0.00 0.00 0.00 60 1035.2
20260505182904 28 269 4.8 14.5 0.00 0.00 0.00 63 1035.1
20260505182401 27 172 3.2 14.5 0.00 0.00 0.00 63 1035.1
20260505181857 27 288 14.5 22.5 0.00 0.00 0.00 63 1035.4
20260505181355 27 273 9.7 12.9 0.00 0.00 0.00 63 1035.3
20260505180851 27 291 12.9 20.9 0.00 0.00 0.00 63 1035.6
20260505180348 27 265 14.5 14.5 0.00 0.00 0.00 64 1035.6
20260505175844 27 266 4.8 22.5 0.00 0.00 0.00 65 1035.5
20260505175340 27 269 3.2 12.9 0.00 0.00 0.00 66 1035.4
20260505174837 27 253 8.0 12.9 0.00 0.00 0.00 67 1035.5
20260505174335 26 259 6.4 17.7 0.00 0.00 0.00 67 1035.2
20260505173831 26 248 14.5 20.9 0.00 0.00 0.00 66 1035.3
20260505173327 26 242 8.0 17.7 0.00 0.00 0.00 68 1035.6
20260505172825 26 252 9.7 22.5 0.00 0.00 0.00 68 1035.6
20260505172322 26 261 9.7 12.9 0.00 0.00 0.00 70 1035.1
20260505171822 26 255 4.8 16.1 0.00 0.00 0.00 70 1034.8
20260505171319 26 199 4.8 11.3 0.00 0.00 0.00 70 1034.8
20260505170815 25 249 6.4 11.3 0.00 0.00 0.00 72 1035.1
20260505170312 25 242 3.2 17.7 0.00 0.00 0.00 72 1035.3
20260505165808 25 228 3.2 16.1 0.00 0.00 0.00 72 1035.2
20260505165306 25 174 4.8 17.7 0.00 0.00 0.00 72 1034.8
20260505164759 25 208 4.8 19.3 0.00 0.00 0.00 72 1035.0
20260505164256 25 339 4.8 12.9 0.00 0.00 0.00 73 1034.9
20260505163755 25 226 8.0 17.7 0.00 0.00 0.00 73 1035.0
20260505163253 25 230 11.3 12.9 0.00 0.00 0.00 74 1034.9
20260505162750 25 219 8.0 8.0 0.00 0.00 0.00 75 1035.1
20260505162247 25 184 8.0 9.7 0.00 0.00 0.00 74 1035.1
20260505161744 24 221 4.8 19.3 0.00 0.00 0.00 73 1035.1
20260505161241 24 274 8.0 17.7 0.00 0.00 0.00 73 1035.1
20260505160738 24 228 6.4 14.5 0.00 0.00 0.00 75 1035.0
20260505160236 24 239 11.3 14.5 0.00 0.00 0.00 74 1034.7
20260505153215 25 250 9.7 22.5 0.00 0.00 0.00 70 1034.7
20260505152712 25 266 11.3 14.5 0.00 0.00 0.00 69 1034.7
20260505152208 25 227 4.8 11.3 0.00 0.00 0.00 71 1034.3
20260505151703 25 255 12.9 25.7 0.00 0.00 0.00 70 1034.3
20260505151201 25 257 6.4 20.9 0.00 0.00 0.00 72 1034.4
20260505150657 25 236 9.7 27.4 0.00 0.00 0.00 71 1034.4
20260505150154 25 286 6.4 22.5 0.00 0.00 0.00 71 1034.5
20260505140617 22 229 6.4 20.9 0.00 0.00 0.00 81 1034.1
20260505140114 22 236 3.2 14.5 0.00 0.00 0.00 81 1034.1
20260505125030 21 169 11.3 14.5 0.00 0.00 0.00 84 1034.0
20260505124527 21 255 4.8 11.3 0.00 0.00 0.00 84 1033.9
20260505124023 21 256 9.7 16.1 0.00 0.00 0.00 84 1034.1
20260505123520 21 242 8.0 11.3 0.00 0.00 0.00 85 1033.9
20260505123016 21 253 11.3 25.7 0.00 0.00 0.00 84 1033.9
20260505122513 21 239 3.2 11.3 0.00 0.00 0.00 84 1034.0
20260505122010 21 187 6.4 17.7 0.00 0.00 0.00 84 1033.9
20260505121506 21 206 4.8 16.1 0.00 0.00 0.00 84 1033.6
20260505121003 21 209 4.8 14.5 0.00 0.00 0.00 84 1033.5
20260505120500 21 276 8.0 11.3 0.00 0.00 0.00 84 1033.7
20260505115958 21 244 3.2 17.7 0.00 0.00 0.00 84 1033.6
20260505115455 21 216 4.8 12.9 0.00 0.00 0.00 84 1033.6
20260505114953 21 285 11.3 12.9 0.00 0.00 0.00 84 1033.3
20260505114449 21 198 8.0 16.1 0.00 0.00 0.00 84 1033.1
20260505113946 21 238 6.4 11.3 0.00 0.00 0.00 84 1033.1
20260505113442 21 200 8.0 12.9 0.00 0.00 0.00 83 1033.5
20260505112938 21 269 6.4 14.5 0.00 0.00 0.00 83 1033.3
20260505112436 21 264 3.2 14.5 0.00 0.00 0.00 83 1033.5
20260505111932 21 265 8.0 17.7 0.00 0.00 0.00 83 1033.3
20260505111426 21 191 11.3 12.9 0.00 0.00 0.00 83 1033.1
20260505110922 21 269 11.3 14.5 0.00 0.00 0.00 83 1033.4
20260505110419 21 248 20.9 27.4 0.00 0.00 0.00 82 1033.1
20260505101851 21 254 3.2 12.9 0.00 0.00 0.00 81 1033.4
20260505101345 21 197 3.2 17.7 0.00 0.00 0.00 81 1033.4
20260505100841 21 268 6.4 17.7 0.00 0.00 0.00 81 1033.4
20260505100338 21 215 6.4 19.3 0.00 0.00 0.00 81 1033.2
20260505095833 21 228 6.4 24.1 0.00 0.00 0.00 80 1033.2
20260505095331 21 227 4.8 24.1 0.00 0.00 0.00 80 1033.0
20260505094827 21 192 6.4 11.3 0.00 0.00 0.00 80 1033.3
20260505094324 21 202 8.0 19.3 0.00 0.00 0.00 80 1033.3
20260505093819 21 211 4.8 16.1 0.00 0.00 0.00 79 1033.1
20260505093318 21 215 6.4 14.5 0.00 0.00 0.00 79 1033.1
20260505092814 21 240 6.4 22.5 0.00 0.00 0.00 79 1033.2
20260505092313 22 225 6.4 19.3 0.00 0.00 0.00 78 1033.3
20260505091810 22 246 3.2 11.3 0.00 0.00 0.00 78 1033.0
20260505091308 22 224 8.0 17.7 0.00 0.00 0.00 78 1033.3
20260505090805 22 224 6.4 20.9 0.00 0.00 0.00 77 1033.5
20260505090303 22 226 11.3 17.7 0.00 0.00 0.00 77 1033.4
20260505085800 22 230 6.4 20.9 0.00 0.00 0.00 76 1033.5
20260505085258 22 208 6.4 14.5 0.00 0.00 0.00 76 1033.4
20260505084755 22 263 6.4 24.1 0.00 0.00 0.00 76 1033.1
20260505084255 22 257 11.3 25.7 0.00 0.00 0.00 75 1033.5
20260505083751 22 214 8.0 17.7 0.00 0.00 0.00 75 1033.4
20260505083248 22 218 8.0 24.1 0.00 0.00 0.00 75 1033.3
20260505082744 22 202 12.9 20.9 0.00 0.00 0.00 74 1033.0
20260505082241 22 220 8.0 14.5 0.00 0.00 0.00 74 1033.4
20260505081737 22 271 8.0 20.9 0.00 0.00 0.00 74 1033.3
20260505081235 22 276 6.4 24.1 0.00 0.00 0.00 74 1033.4
20260505080731 22 232 6.4 24.1 0.00 0.00 0.00 74 1033.4
20260505080227 22 204 8.0 17.7 0.00 0.00 0.00 74 1033.4
20260505075722 22 241 3.2 16.1 0.00 0.00 0.00 74 1033.7
20260505075220 22 221 6.4 20.9 0.00 0.00 0.00 73 1033.9
20260505074717 22 241 6.4 20.9 0.00 0.00 0.00 73 1034.0
20260505074214 22 225 6.4 17.7 0.00 0.00 0.00 73 1033.7
20260505073712 22 196 3.2 14.5 0.00 0.00 0.00 73 1034.0
20260505073210 22 200 11.3 19.3 0.00 0.00 0.00 73 1034.0
20260505072705 22 255 9.7 17.7 0.00 0.00 0.00 73 1034.0
20260505072202 22 262 11.3 20.9 0.00 0.00 0.00 73 1034.3
20260505071657 22 180 8.0 14.5 0.00 0.00 0.00 73 1034.3
20260505071155 22 184 4.8 19.3 0.00 0.00 0.00 72 1034.2
20260505070652 22 213 16.1 27.4 0.00 0.00 0.00 72 1034.6
20260505070149 22 242 4.8 16.1 0.00 0.00 0.00 73 1034.6
20260505065644 22 239 4.8 24.1 0.00 0.00 0.00 72 1034.6
20260505065141 22 189 11.3 24.1 0.00 0.00 0.00 72 1034.6
20260505064638 22 266 4.8 20.9 0.00 0.00 0.00 73 1034.8
20260505064136 22 241 9.7 16.1 0.00 0.00 0.00 73 1034.8
20260505063634 22 260 8.0 12.9 0.00 0.00 0.00 73 1034.9
20260505063130 22 245 16.1 19.3 0.00 0.00 0.00 73 1035.0
20260505062626 22 254 6.4 25.7 0.00 0.00 0.00 73 1034.8
20260505062123 22 227 6.4 17.7 0.00 0.00 0.00 73 1034.9
20260505061620 22 245 6.4 29.0 0.00 0.00 0.00 73 1035.0
20260505061119 22 265 4.8 20.9 0.00 0.00 0.00 73 1034.9
20260505060616 22 184 20.9 24.1 0.00 0.00 0.00 72 1034.8
20260505060113 22 310 6.4 20.9 0.00 0.00 0.00 72 1035.1
20260505055608 22 177 9.7 20.9 0.00 0.00 0.00 72 1035.2
20260505055104 22 257 6.4 17.7 0.00 0.00 0.00 72 1035.1
20260505054602 22 197 12.9 25.7 0.00 0.00 0.00 72 1035.0
20260505054100 22 215 8.0 20.9 0.00 0.00 0.00 72 1035.1
20260505053557 22 179 6.4 12.9 0.00 0.00 0.00 72 1035.2
20260505053053 22 187 6.4 14.5 0.00 0.00 0.00 72 1035.1
20260505052550 22 237 4.8 14.5 0.00 0.00 0.00 72 1035.3
20260505052048 22 205 8.0 22.5 0.00 0.00 0.00 72 1035.1
20260505051544 22 181 16.1 20.9 0.00 0.00 0.00 72 1035.3
20260505051043 22 160 3.2 17.7 0.00 0.00 0.00 72 1035.1
20260505050541 23 253 9.7 22.5 0.00 0.00 0.00 71 1035.4
20260505041508 23 174 12.9 20.9 0.00 0.00 0.00 71 1035.7
20260505041006 22 216 8.0 14.5 0.00 0.00 0.00 71 1035.5
20260505040503 22 230 11.3 25.7 0.00 0.00 0.00 71 1035.6
20260505040000 22 219 4.8 17.7 0.00 0.00 0.00 71 1035.8
20260505035455 22 208 6.4 27.4 0.00 0.00 0.00 71 1035.9
20260505034953 22 186 8.0 20.9 0.00 0.00 0.00 71 1035.8
20260505034449 22 233 8.0 12.9 0.00 0.00 0.00 71 1035.8
20260505033947 22 137 4.8 20.9 0.00 0.00 0.00 71 1035.7
20260505033443 22 211 8.0 19.3 0.00 0.00 0.00 71 1035.7
20260505032942 22 176 9.7 14.5 0.00 0.00 0.00 71 1035.6
20260505032439 22 203 9.7 14.5 0.00 0.00 0.00 71 1036.0
20260505031935 22 186 8.0 17.7 0.00 0.00 0.00 70 1036.0
20260505031432 22 225 4.8 16.1 0.00 0.00 0.00 71 1036.0
20260505030929 22 202 8.0 14.5 0.00 0.00 0.00 70 1036.2
20260505030424 22 173 11.3 17.7 0.00 0.00 0.00 71 1035.8
20260505025920 22 165 8.0 19.3 0.00 0.00 0.00 70 1035.9